Location: Caltech
(34.1382°N, 118.1253°W)
Time: 06:51:21
(UTC-07:00)

Daily predictions for brighter satellites

Satellite Brightness Start Highest point End
(mag) Time Altitude Azimuth Time Altitude Azimuth Time Altitude Azimuth
DMSP B5D1-3 4.5 19:11:45 10° NNE 19:16:52 82° ESE 19:21:57 10° S
Resurs 01 Rocket 3.5 19:18:58 10° E 19:20:33 12° ENE 19:22:07 10° NE
Cosmos 2292 Rocket 4.1 19:17:12 10° SSW 19:20:41 47° W 19:23:39 10° N
ALOS 2.3 19:19:32 10° SSE 19:24:09 65° ENE 19:28:46 10° N
FREGAT/IRIS 3.4 19:23:31 10° SE 19:26:15 32° ENE 19:29:01 10° N
ATLAS CENTAUR R/B 4.3 19:13:02 10° NW 19:26:45 37° NNE 19:31:41 12° E
GPS 2-04 Rocket1 3.5 19:25:40 10° W 19:29:49 50° SSW 19:33:59 10° SE
Cosmos 1814 Rocket 3.9 19:27:05 10° S 19:32:14 72° ESE 19:37:22 10° NNE
Cosmos 1898 Rocket 3.5 19:27:10 10° N 19:32:17 59° ENE 19:37:22 10° SSE
Cosmos 2084 3.3 19:29:31 10° SSW 19:33:39 62° ESE 19:37:33 10° NE
Cosmos 1943 Rocket 2.2 19:28:24 10° NNW 19:33:55 59° ENE 19:39:26 10° SSE
OAO 2 Rocket 4.3 19:28:52 10° W 19:33:55 44° SSW 19:38:56 10° SE
H-2A R/B 3.2 19:31:19 10° SE 19:34:43 37° ENE 19:38:10 10° N
Lacrosse 5 2.2 19:33:56 10° NW 19:38:58 66° SW 19:43:58 10° SSE
Cosmos 2228 3.1 19:36:07 10° S 19:40:22 52° E 19:44:36 10° NNE
USA 81 4.2 19:36:52 10° N 19:42:01 52° E 19:47:09 10° SSE
Cosmos 2058 Rocket 3.0 19:37:58 10° S 19:42:14 61° E 19:46:33 10° NNE
Meteor 2-5 Rocket 4.0 19:36:56 10° N 19:42:35 49° ENE 19:48:06 10° SSE
Cosmos 1606 Rocket 3.8 19:38:39 10° SSW 19:42:59 71° W 19:47:19 10° N
Cosmos 990 Rocket 4.2 19:39:46 10° N 19:44:45 47° ENE 19:49:41 10° SE
Cosmos 389 Rocket 3.4 19:42:06 10° SSW 19:45:32 51° W 19:48:57 10° N
Cosmos 1766 4.2 19:42:37 10° SSE 19:45:58 27° E 19:49:19 10° NNE
BREEZE-M DEB 3.9 19:38:43 10° NW 19:47:06 47° NNE 19:49:07 21° E
Cosmos 1953 Rocket 3.4 19:43:21 10° N 19:47:42 74° E 19:51:59 10° SSE
Envisat 4.2 19:48:56 18° E 19:50:46 22° ENE 19:54:38 10° NNE
Cosmos 2150 Rocket 4.1 19:45:40 10° N 19:50:55 56° ENE 19:56:13 10° SSE
Geosat 4.1 19:47:03 10° SSE 19:52:03 77° WSW 19:57:06 10° NNW
Cosmos 1707 2.6 19:53:29 10° N 19:57:25 83° E 20:01:20 10° S
COSMOS 2406 3.4 19:52:52 10° S 19:58:15 46° ESE 20:03:41 10° NE
FengYun 1-2 T 4.2 19:54:24 10° SSE 20:00:02 83° ENE 20:05:38 10° N
OE (NEXTSAT) 4.3 20:00:34 10° NW 20:04:05 68° NNE 20:05:12 39° ESE
TIMED 4.4 20:02:36 10° NNW 20:06:59 78° ENE 20:10:25 16° SSE
Cosmos 1340 Rocket 3.9 20:07:45 10° NNW 20:11:40 47° W 20:15:34 10° SSW
Cosmos 2369 Rocket 3.8 20:07:53 10° NW 20:12:53 34° WSW 20:17:51 10° SSW
Milstar 3 Cent rocket 2.9 20:09:03 10° SW 20:13:24 28° SSE 20:14:23 26° SE
Cosmos 841 Rocket 3.7 20:08:18 10° SSW 20:13:26 72° WNW 20:18:34 10° NNE
Cosmos 1656 Rocket 3.8 20:08:47 10° N 20:14:19 54° ENE 20:16:56 30° SE
Cosmos 2298 Rocket 4.2 20:09:43 10° NNW 20:15:03 74° WSW 20:20:21 10° S
HJ-1C 3.8 20:13:54 12° S 20:16:56 63° W 20:20:16 10° NNW
Cosmos 1937 Rocket 3.8 20:12:54 10° NNW 20:18:11 70° WSW 20:23:23 10° S
BREEZE-M DEB (TANK) 4.0 20:08:05 10° WSW 20:22:56 72° NW 20:26:09 21° NE
Cosmos 1356 Rocket 3.4 20:22:40 10° N 20:26:59 88° E 20:28:59 32° S
Cosmos 1378 4.5 20:23:41 10° NNW 20:27:14 40° W 20:30:46 10° SSW
CZ-2D R/B 3.1 20:27:36 47° S 20:28:38 88° W 20:32:27 10° NNW
Cosmos 1544 3.0 20:32:03 50° SSW 20:32:53 80° W 20:36:31 10° N
USA 229 DEB 4.3 20:26:13 10° NW 20:33:18 61° WSW 20:39:44 14° SSE
USA 229 4.2 20:26:19 10° NW 20:33:24 62° WSW 20:39:44 14° SSE
In-Cosmos 22 4.1 20:29:09 10° N 20:34:50 72° E 20:37:25 34° SSE
SJ-6B 4.5 20:33:36 10° SSW 20:37:18 34° W 20:40:58 10° NNW
Centaur D AC-29 2.6 20:26:52 10° WSW 20:37:56 35° S 20:38:54 33° SSE
NOSS 3-1 (A) 4.2 20:30:23 10° NNW 20:38:03 58° NE 20:41:01 40° ESE
Cosmos 2154 Rocket 3.9 20:32:33 10° S 20:38:41 66° E 20:44:51 10° NNE
Resurs 1-3 3.4 20:39:14 66° SSE 20:39:50 87° ENE 20:44:15 10° NNW
Cosmos 540 Rocket 3.4 20:36:18 10° SSW 20:41:24 82° WNW 20:46:31 10° NNE
OAO 3 Copernicus 4.2 20:36:33 10° W 20:41:37 85° N 20:42:15 68° ENE
Yuri Rocket 4.3 20:40:43 10° SW 20:43:24 27° SSW 20:43:24 27° SSW
Cosmos 2341 Rocket 4.1 20:46:35 52° E 20:46:35 52° E 20:52:18 10° NNE
NOSS 3-1 (C) 4.0 20:40:29 10° NNW 20:48:22 86° ENE 20:52:06 38° SSE
Meteor 1-24 Rocket 4.3 20:50:04 10° NNW 20:55:55 59° W 21:00:04 19° SSW
Resurs 01 Rocket 2.2 20:55:40 46° SW 20:56:30 54° W 21:00:50 10° NNW
Spot 2 Rocket 3.6 20:56:14 53° SSW 20:57:18 70° WSW 21:02:21 10° NNW
GEOS 3 Rocket 4.1 20:59:47 10° NNE 21:05:06 60° NW 21:10:21 10° SW
GP-B 3.9 21:04:56 10° N 21:09:00 48° WNW 21:09:00 48° WNW
Nadezhda 3 Rocket 4.0 21:10:04 10° N 21:16:22 79° W 21:16:51 74° SW
FALCON 9 R/B 2.5 21:18:55 10° W 21:22:28 76° W 21:22:28 76° W
BREEZE-M (TANK) 4.3 21:17:24 10° NW 21:23:45 37° W 21:23:45 37° W
Cosmos 1125 Rocket 4.3 21:19:43 10° NNW 21:23:46 50° NW 21:23:46 50° NW
Envisat 4.3 21:29:08 35° WSW 21:29:31 35° W 21:34:10 10° NNW
ATLAS 2AS CENTAUR R/B 4.1 22:12:36 10° NNW 22:17:09 34° N 22:17:09 34° N
